Regional Weather Roundup
Issued by NWS

Home | Current Version | Previous Version | Text Only | Print | Product List | Glossary On
Versions: 1 2 3 4 5 6 7 8 9 10 11 12 13 14 15 16 17 18 19 20 21 22 23 24 25 26 27 28 29 30 31 32 33 34 35 36 37 38 39 40 41 42 43 44 45 46 47 48 49 50
000
ASUS44 KOUN 220810
RWROK

WEATHER ROUNDUP FOR OKLAHOMA
NATIONAL WEATHER SERVICE NORMAN OK
300 AM CDT FRI AUG 22 2014

NOTE: "FAIR" INDICATES FEW OR NO CLOUDS BELOW 12,000 FEET WITH NO
      SIGNIFICANT WEATHER AND/OR OBSTRUCTIONS TO VISIBILITY.

OKZ001>007-009>012-014-015-017-220900-
NORTHWEST OKLAHOMA AND THE PANHANDLE

CITY           SKY/WX    TMP DP  RH WIND       PRES   REMARKS
GAGE           CLEAR     82  63  52 S16       29.93S
ENID/WOODRING  CLEAR     75  68  78 S7        29.91F
$$

OKZ016-021>023-033>039-044-045-220900-
SOUTHWEST OKLAHOMA

CITY           SKY/WX    TMP DP  RH WIND       PRES   REMARKS
LAWTON/REGL    CLEAR     82  59  45 SE8       29.95R
LAWTON/FT SILL CLEAR     82  60  47 S10       29.94R
FREDERICK      CLEAR     81  58  45 S10       29.91S
CLINTON        CLEAR     85  60  42 S15       29.97R
HOBART         CLEAR     82  59  45 S13       29.95S
ALTUS AFB      CLEAR     79  62  54 SE6       29.94R
$$

OKZ018>020-024>031-220900-
CENTRAL OKLAHOMA

CITY           SKY/WX    TMP DP  RH WIND       PRES   REMARKS
OKLAHOMA CITY  PTCLDY    78  65  63 S8        29.96R
OKC/WILEY POST CLEAR     80  65  59 S15G23    29.95S
OKC/TINKER AFB CLEAR     80  66  62 S13       29.96S
STILLWATER     CLEAR     81  67  62 S12       29.93F
GUTHRIE        CLEAR     81  66  60 S12       29.94S
$$

OKZ008-013-054>072-220900-
NORTHEAST OKLAHOMA

CITY           SKY/WX    TMP DP  RH WIND       PRES   REMARKS
TULSA          CLEAR     82  70  66 S13       29.94F
TULSA/JONES    CLEAR     80  70  71 S5        29.95F
PONCA CITY     CLEAR     83  68  60 S9G22     29.92F
BARTLESVILLE   CLEAR     79  70  74 S3        29.94F
MUSKOGEE       CLEAR     76  72  87 SE7       29.98S
$$

OKZ032-040>043-046>053-073>077-220900-
SOUTH CENTRAL/SOUTHEAST OKLAHOMA

CITY           SKY/WX    TMP DP  RH WIND       PRES   REMARKS
ARDMORE/DWNTWN CLEAR     79  64  61 S5        29.97S
MCALESTER      CLEAR     82  70  66 S8        29.99S
$$




USA.gov is the U.S. government's official web portal to all federal, state and local government web resources and services.